Weather History for Dickinson, ND

Change the Weather History Date:

Monday, May 7, 2012

  Actual Average Record
Temperature  
Mean Temperature 48 °F 50 °F  
Max Temperature 58 °F 64 °F 93 °F (1992)
Min Temperature 38 °F 37 °F 14 °F (1929)
Degree Days  
Heating Degree Days 17 15  
Month to date heating degree days 87 112  
Since 1 July heating degree days 6795 8174  
Cooling Degree Days 0 0  
Month to date cooling degree days 0 0  
Year to date cooling degree days 4 1  
Moisture  
Dew Point 35 °F    
Average Humidity 63    
Maximum Humidity 76    
Minimum Humidity 50    
Precipitation  
Precipitation 0.01 in 0.06 in 1.15 in (1970)
Month to date precipitation 0.45 0.47  
Year to date precipitation 2.57 3.26  
Sea Level Pressure  
Sea Level Pressure 30.10 in    
Wind  
Wind Speed 19 mph (WNW)    
Max Wind Speed 14 mph    
Max Gust Speed 23 mph    
Visibility 10 miles    
Events Rain    
T = Trace of Precipitation, MM = Missing Value Source: NWS Daily Summary

Daily Weather History Graph

Daily Weather History Graph

Search for Another Location

Airport:

Trip Planner

Search our weather history database for the weather conditions in past years. The results will help you decide how hot, cold, wet, or windy it might be!

Date:

Astronomy

May. 07, 2012 Rise Set
Actual Time 5:26 AM MDT 8:09 PM MDT
Civil Twilight 4:51 AM MDT 8:44 PM MDT
Nautical Twilight 4:07 AM MDT 9:28 PM MDT
Astronomical Twilight 3:16 AM MDT 10:20 PM MDT
Moon 10:30 PM MDT (5/7) 6:28 AM MDT (5/7)
Length of Visible Light 15h 53m
Length of Day
14h 43m
Waning Gibbous, 96% of the Moon is Illuminated
May 7
Waning Gibbous
May 12
Last Quarter
May 20
New
May 28
First Quarter
Jun 4
Full

Hourly Weather History & Observations

Time (MDT) Temp. Windchill Dew Point Humidity Pressure Visibility Wind Dir Wind Speed Gust Speed Precip Events Conditions
12:56 AM 44.1 °F 35.4 °F 33.1 °F 65% 30.09 in 10.0 mi West 21.9 mph 27.6 mph N/A   Clear
1:56 AM 43.0 °F 34.8 °F 32.0 °F 65% 30.09 in 10.0 mi West 18.4 mph - N/A   Clear
2:56 AM 42.1 °F 34.9 °F 32.0 °F 67% 30.09 in 10.0 mi West 13.8 mph 23.0 mph N/A   Clear
3:56 AM 39.9 °F 32.9 °F 32.0 °F 73% 30.09 in 10.0 mi West 11.5 mph - N/A   Clear
4:56 AM 39.0 °F 30.3 °F 30.9 °F 73% 30.09 in 10.0 mi West 16.1 mph - N/A   Clear
5:56 AM 39.9 °F 31.1 °F 30.0 °F 68% 30.09 in 10.0 mi West 17.3 mph - N/A   Clear
6:56 AM 43.0 °F 34.2 °F 32.0 °F 65% 30.10 in 10.0 mi WNW 20.7 mph 27.6 mph N/A   Clear
7:34 AM 44.6 °F 35.5 °F 33.8 °F 66% 30.08 in 10.0 mi WNW 25.3 mph 34.5 mph N/A   Overcast
7:56 AM 44.1 °F 34.4 °F 34.0 °F 68% 30.11 in 10.0 mi WNW 27.6 mph 35.7 mph N/A   Mostly Cloudy
8:24 AM 46.4 °F 37.5 °F 35.6 °F 66% 30.08 in 10.0 mi WNW 27.6 mph 35.7 mph N/A   Scattered Clouds
8:56 AM 48.0 °F - 36.0 °F 63% 30.12 in 10.0 mi WNW 25.3 mph 35.7 mph N/A   Mostly Cloudy
9:21 AM 50.0 °F - 35.6 °F 58% 30.08 in 10.0 mi WNW 23.0 mph 34.5 mph N/A   Scattered Clouds
9:47 AM 48.2 °F - 35.6 °F 62% 30.09 in 10.0 mi WNW 25.3 mph 35.7 mph N/A   Mostly Cloudy
9:56 AM 50.0 °F - 36.0 °F 59% 30.12 in 10.0 mi NW 27.6 mph 35.7 mph N/A   Overcast
10:46 AM 51.8 °F - 37.4 °F 58% 30.09 in 10.0 mi WNW 28.8 mph 33.4 mph N/A   Overcast
10:56 AM 50.0 °F - 36.0 °F 59% 30.12 in 10.0 mi NW 24.2 mph 34.5 mph N/A   Overcast
11:56 AM 50.0 °F - 36.0 °F 59% 30.13 in 10.0 mi NW 25.3 mph 32.2 mph N/A   Overcast
12:56 PM 52.0 °F - 37.0 °F 57% 30.12 in 10.0 mi NW 19.6 mph 29.9 mph N/A   Overcast
1:56 PM 50.0 °F - 41.0 °F 71% 30.12 in 9.0 mi NW 18.4 mph 33.4 mph 0.00 in Rain Light Rain
2:56 PM 55.9 °F - 35.1 °F 45% 30.09 in 10.0 mi WNW 27.6 mph 34.5 mph 0.00 in   Overcast
3:56 PM 53.1 °F - 36.0 °F 52% 30.11 in 10.0 mi NW 20.7 mph 27.6 mph 0.00 in   Overcast
4:56 PM 54.0 °F - 37.0 °F 53% 30.11 in 10.0 mi NNW 27.6 mph 33.4 mph 0.00 in   Mostly Cloudy
5:56 PM 51.1 °F - 39.0 °F 63% 30.12 in 10.0 mi NW 16.1 mph 23.0 mph 0.01 in   Mostly Cloudy
6:56 PM 51.1 °F - 37.0 °F 59% 30.12 in 10.0 mi NW 18.4 mph 25.3 mph N/A   Overcast
7:56 PM 48.9 °F - 37.0 °F 64% 30.11 in 10.0 mi NW 16.1 mph 24.2 mph N/A   Overcast
8:56 PM 48.0 °F - 39.0 °F 71% 30.12 in 10.0 mi WNW 10.4 mph - N/A   Overcast
10:56 PM 48.0 °F - 37.9 °F 68% 30.12 in 10.0 mi WNW 11.5 mph - N/A   Unknown
11:56 PM 48.0 °F - 37.0 °F 66% 30.12 in 10.0 mi WNW 11.5 mph - N/A   Overcast